GW0038 Weather Reports


Display with metric or nautical units.
time (UTC)temp
F
wind
direction
speed
MPH
gust
MPH
rain 1hr
in
rain 24hr
in
rain mn
in
humidity
%
barometer
mb
20260510225541 57 107 0.0 1.0 0.00 0.12 0.00 91 1012.2
20260510225042 57 0 0.0 2.0 0.00 0.12 0.00 91 1012.0
20260510224603 57 108 0.0 2.0 0.00 0.12 0.00 91 1012.0
20260510224043 57 106 0.0 2.0 0.00 0.12 0.00 92 1011.8
20260510223545 57 0 0.0 2.0 0.00 0.12 0.00 91 1011.9
20260510223050 57 0 0.0 1.0 0.00 0.12 0.00 91 1011.9
20260510222542 58 78 0.0 1.0 0.00 0.12 0.00 91 1012.0
20260510222041 58 100 0.0 1.0 0.00 0.12 0.00 92 1011.9
20260510221548 58 0 0.0 1.0 0.00 0.12 0.00 93 1011.8
20260510221043 57 0 0.0 1.0 0.00 0.12 0.00 94 1012.0
20260510220542 57 0 0.0 1.0 0.00 0.12 0.00 93 1012.1
20260510220048 57 0 0.0 1.0 0.00 0.12 0.00 94 1011.9
20260510215542 56 0 0.0 1.0 0.00 0.14 0.00 94 1011.9
20260510215046 56 78 0.0 1.0 0.00 0.14 0.00 94 1012.0
20260510214546 56 0 0.0 2.0 0.00 0.14 0.00 93 1012.1
20260510214042 55 0 0.0 2.0 0.00 0.14 0.00 93 1011.9
20260510213546 55 0 0.0 2.0 0.00 0.14 0.00 93 1011.9
20260510213102 56 148 0.0 2.0 0.00 0.14 0.00 92 1011.8
20260510212542 56 0 0.0 3.0 0.00 0.14 0.00 92 1011.7
20260510212043 56 126 1.0 3.0 0.00 0.14 0.00 92 1011.7
20260510211625 56 117 1.0 3.0 0.00 0.14 0.00 92 1011.7
20260510211043 57 77 0.0 1.0 0.00 0.14 0.00 92 1011.6
20260510210542 57 101 0.0 2.0 0.00 0.14 0.00 91 1011.4
20260510210049 57 0 0.0 2.0 0.00 0.14 0.00 91 1011.4
20260510205542 57 92 0.0 2.0 0.00 0.14 0.00 91 1011.5
20260510205042 57 127 0.0 6.0 0.00 0.14 0.00 90 1011.6
20260510204549 58 101 1.0 6.0 0.00 0.14 0.00 90 1011.4
20260510204041 58 132 1.0 2.0 0.00 0.14 0.00 90 1011.5
20260510203541 58 105 0.0 2.0 0.00 0.14 0.00 91 1011.4
20260510203049 58 0 0.0 2.0 0.00 0.14 0.00 91 1011.4
20260510202543 58 0 0.0 2.0 0.00 0.14 0.00 93 1011.7
20260510202043 57 119 0.0 2.0 0.00 0.14 0.00 93 1011.5
20260510201553 57 134 1.0 2.0 0.00 0.14 0.00 92 1011.5
20260510201043 57 161 1.0 2.0 0.00 0.14 0.00 92 1011.4
20260510200545 57 140 1.0 2.0 0.00 0.14 0.00 92 1011.4
20260510200056 57 360 0.0 2.0 0.00 0.14 0.00 92 1011.5
20260510195541 57 159 0.0 2.0 0.00 0.21 0.00 92 1011.8
20260510195043 57 156 0.0 2.0 0.00 0.21 0.00 92 1011.8
20260510194549 57 163 0.0 2.0 0.00 0.21 0.00 92 1011.6
20260510194043 57 171 1.0 2.0 0.00 0.21 0.00 92 1011.7
20260510193542 56 204 1.0 7.0 0.00 0.21 0.00 91 1012.0
20260510193046 56 360 2.0 7.0 0.00 0.21 0.00 91 1012.2
20260510192542 57 360 3.0 8.0 0.00 0.21 0.00 91 1012.0
20260510192045 57 209 5.0 8.0 0.00 0.21 0.00 91 1012.0
20260510191612 58 224 1.0 6.0 0.00 0.21 0.00 90 1012.1
20260510191042 58 360 1.0 2.0 0.00 0.21 0.00 91 1012.0
20260510190543 57 360 1.0 2.0 0.00 0.21 0.00 91 1012.1
20260510190058 57 218 1.0 2.0 0.00 0.21 0.00 92 1012.2
20260510185547 56 228 1.0 2.0 0.00 0.28 0.00 92 1012.3
20260510185042 56 215 1.0 2.0 0.00 0.28 0.00 92 1012.2
20260510184550 56 219 1.0 4.0 0.00 0.28 0.00 92 1012.2
20260510184045 56 215 0.0 4.0 0.00 0.28 0.00 92 1012.2
20260510183542 56 194 1.0 3.0 0.00 0.28 0.00 92 1012.2
20260510183057 56 175 1.0 4.0 0.00 0.28 0.00 91 1012.1
20260510182542 57 202 1.0 9.0 0.00 0.28 0.00 91 1012.1
20260510182045 57 173 4.0 10.0 0.00 0.28 0.00 91 1012.2
20260510181554 58 175 4.0 11.0 0.00 0.28 0.00 90 1012.2
20260510181043 58 175 4.0 11.0 0.00 0.28 0.00 89 1012.2
20260510180543 58 360 5.0 9.0 0.00 0.28 0.00 91 1012.2
20260510180052 58 214 2.0 5.0 0.00 0.28 0.00 91 1012.2
20260510175544 57 219 1.0 4.0 0.00 0.29 0.00 92 1012.4
20260510175043 57 180 1.0 9.0 0.00 0.29 0.00 92 1012.5
20260510174559 56 190 2.0 9.0 0.00 0.29 0.00 93 1012.5
20260510174043 56 206 3.0 9.0 0.00 0.29 0.00 93 1012.5
20260510173542 55 176 1.0 3.0 0.00 0.29 0.00 93 1012.4
20260510173045 55 182 1.0 3.0 0.00 0.29 0.00 93 1012.5
20260510172546 55 203 1.0 2.0 0.00 0.29 0.00 93 1012.4
20260510172043 55 360 1.0 3.0 0.00 0.29 0.00 93 1012.6
20260510171549 55 194 1.0 3.0 0.00 0.29 0.00 93 1012.5
20260510171046 55 360 1.0 3.0 0.00 0.29 0.00 92 1012.5
20260510170543 55 187 1.0 2.0 0.00 0.29 0.00 92 1012.6
20260510170104 55 178 1.0 2.0 0.00 0.29 0.00 92 1012.4
20260510165542 56 188 1.0 2.0 0.00 0.29 0.00 92 1012.5
20260510165042 56 181 1.0 2.0 0.00 0.29 0.00 92 1012.7
20260510164613 55 211 1.0 2.0 0.00 0.29 0.00 93 1012.7
20260510164042 55 209 1.0 2.0 0.00 0.29 0.00 93 1012.7
20260510163542 55 205 1.0 2.0 0.00 0.29 0.00 92 1012.7
20260510163059 55 216 1.0 4.0 0.00 0.29 0.00 92 1012.4
20260510162544 55 360 0.0 4.0 0.00 0.29 0.00 93 1012.7
20260510162043 55 360 1.0 2.0 0.00 0.29 0.00 92 1012.7
20260510161549 55 216 1.0 2.0 0.00 0.29 0.00 93 1012.6
20260510161043 55 360 1.0 2.0 0.00 0.29 0.00 92 1012.7
20260510160543 55 0 1.0 2.0 0.00 0.29 0.00 92 1012.5
20260510160058 55 186 1.0 2.0 0.00 0.29 0.00 92 1012.7
20260510155543 55 360 1.0 2.0 0.00 0.29 0.00 92 1012.8
20260510155045 55 182 1.0 2.0 0.00 0.29 0.00 92 1012.7
20260510154556 55 0 0.0 2.0 0.00 0.29 0.00 92 1012.7
20260510154043 55 360 1.0 2.0 0.00 0.29 0.00 92 1012.7
20260510153542 55 235 0.0 2.0 0.00 0.29 0.00 93 1013.0
20260510153050 55 0 0.0 2.0 0.00 0.29 0.00 94 1013.0
20260510152541 54 360 0.0 2.0 0.00 0.29 0.00 94 1013.1
20260510152043 54 0 0.0 2.0 0.00 0.29 0.00 94 1013.1
20260510151550 54 211 0.0 2.0 0.00 0.29 0.00 94 1013.2
20260510151043 54 202 0.0 2.0 0.00 0.29 0.00 94 1013.1
20260510150543 54 186 0.0 2.0 0.00 0.29 0.00 94 1013.1
20260510150054 53 192 0.0 2.0 0.00 0.29 0.00 94 1013.2
20260510145544 54 0 0.0 1.0 0.00 0.29 0.00 95 1013.0
20260510145043 54 163 0.0 1.0 0.00 0.29 0.00 95 1013.0
20260510144619 53 0 0.0 1.0 0.00 0.29 0.00 96 1013.0
20260510144042 53 153 0.0 1.0 0.00 0.29 0.00 96 1012.9
20260510143542 53 0 0.0 2.0 0.00 0.29 0.00 96 1012.8
20260510142542 53 140 0.0 2.0 0.00 0.29 0.00 96 1012.7
20260510142043 53 0 0.0 1.0 0.00 0.29 0.00 96 1012.6
20260510141556 52 94 0.0 1.0 0.00 0.29 0.00 96 1012.5
20260510141043 52 0 0.0 1.0 0.00 0.29 0.00 96 1012.7
20260510140547 52 86 0.0 2.0 0.00 0.29 0.00 97 1012.6
20260510140054 52 128 0.0 2.0 0.00 0.29 0.00 96 1012.7
20260510135543 52 110 0.0 1.0 0.00 0.29 0.00 96 1012.7
20260510135043 52 179 0.0 2.0 0.00 0.29 0.00 96 1012.6
20260510134556 52 0 0.0 2.0 0.00 0.29 0.00 96 1012.7
20260510134044 52 138 0.0 2.0 0.00 0.29 0.00 96 1012.3
20260510133544 52 130 0.0 2.0 0.00 0.29 0.00 96 1012.5
20260510133056 52 140 1.0 2.0 0.00 0.29 0.00 96 1012.5
20260510132543 52 119 1.0 2.0 0.00 0.29 0.00 96 1012.4
20260510132047 52 0 1.0 3.0 0.00 0.29 0.00 96 1012.4
20260510131555 52 146 1.0 3.0 0.00 0.29 0.00 96 1012.4
20260510131042 52 156 1.0 2.0 0.00 0.29 0.00 96 1012.5
20260510130543 52 143 1.0 2.0 0.00 0.29 0.00 97 1012.6
20260510130050 52 141 0.0 2.0 0.00 0.29 0.00 97 1012.5
20260510125544 52 132 0.0 2.0 0.00 0.29 0.00 97 1012.4
20260510125043 53 134 0.0 2.0 0.00 0.29 0.00 97 1012.3
20260510124610 52 0 0.0 2.0 0.00 0.29 0.00 97 1012.2
20260510124043 52 99 0.0 2.0 0.00 0.29 0.00 97 1012.2
20260510123543 52 0 0.0 2.0 0.00 0.29 0.00 97 1012.0
20260510123053 52 109 0.0 2.0 0.00 0.29 0.00 97 1012.0
20260510122543 52 134 0.0 2.0 0.00 0.29 0.00 97 1011.8
20260510122043 52 0 0.0 2.0 0.00 0.29 0.00 97 1011.8
20260510121556 52 107 0.0 2.0 0.00 0.29 0.00 97 1011.8
20260510121044 52 156 0.0 2.0 0.00 0.29 0.00 97 1011.8
20260510120544 52 144 1.0 2.0 0.00 0.29 0.00 97 1011.8
20260510120051 52 0 0.0 1.0 0.00 0.29 0.00 97 1011.9
20260510115542 52 0 0.0 2.0 0.00 0.29 0.00 97 1011.8
20260510115043 52 0 0.0 2.0 0.00 0.29 0.00 98 1011.7
20260510114548 52 133 1.0 2.0 0.00 0.29 0.00 97 1011.6
20260510114042 52 136 1.0 2.0 0.00 0.29 0.00 97 1011.4
20260510113541 52 136 0.0 2.0 0.00 0.29 0.00 98 1011.5
20260510113046 52 163 0.0 2.0 0.00 0.29 0.00 98 1011.5
20260510112543 52 149 0.0 2.0 0.00 0.29 0.00 97 1011.5
20260510112043 52 145 1.0 2.0 0.00 0.29 0.00 97 1011.4
20260510111554 52 139 0.0 2.0 0.00 0.29 0.00 97 1011.6
20260510111044 52 146 1.0 2.0 0.00 0.29 0.00 97 1011.4
20260510110543 52 151 0.0 2.0 0.00 0.29 0.00 97 1011.4
20260510110049 52 0 0.0 2.0 0.00 0.29 0.00 97 1011.4
20260510105542 52 141 0.0 2.0 0.00 0.29 0.00 97 1011.5
20260510105042 52 127 0.0 2.0 0.00 0.29 0.00 97 1011.3
20260510104603 52 140 1.0 2.0 0.00 0.29 0.00 97 1011.1
20260510104044 52 130 0.0 2.0 0.00 0.29 0.00 97 1011.2
20260510103542 51 0 0.0 2.0 0.00 0.29 0.00 97 1011.2
20260510103052 51 136 0.0 2.0 0.00 0.29 0.00 97 1011.2
20260510102543 51 190 0.0 2.0 0.00 0.29 0.00 97 1011.4
20260510102043 51 185 1.0 3.0 0.00 0.29 0.00 97 1011.2
20260510101552 51 181 1.0 3.0 0.00 0.29 0.00 97 1011.2
20260510101045 51 128 0.0 3.0 0.00 0.29 0.00 97 1011.1
20260510100545 51 0 1.0 3.0 0.00 0.29 0.00 97 1011.4
20260510100048 52 154 0.0 2.0 0.00 0.29 0.00 97 1011.3
20260510095542 52 0 0.0 1.0 0.00 0.29 0.00 97 1011.4
20260510095041 52 355 0.0 1.0 0.00 0.29 0.00 97 1011.3
20260510094603 52 0 0.0 1.0 0.00 0.29 0.00 97 1011.4
20260510094046 52 350 0.0 1.0 0.00 0.29 0.00 97 1011.5
20260510093543 52 0 0.0 1.0 0.00 0.29 0.00 97 1011.4
20260510093112 52 0 0.0 0.0 0.00 0.29 0.00 97 1011.6
20260510092542 51 0 0.0 0.0 0.00 0.29 0.00 97 1011.5
20260510092042 51 0 0.0 1.0 0.00 0.29 0.00 97 1011.6
20260510091559 51 0 0.0 1.0 0.00 0.29 0.00 97 1011.6
20260510091047 51 355 0.0 2.0 0.00 0.29 0.00 97 1011.8
20260510090542 51 0 0.0 2.0 0.00 0.29 0.00 97 1011.5
20260510090049 51 0 0.0 2.0 0.00 0.29 0.00 97 1011.4
20260510085542 51 355 0.0 3.0 0.00 0.29 0.00 97 1011.6
20260510085042 51 0 0.0 3.0 0.00 0.29 0.00 97 1011.3
20260510084550 51 318 0.0 3.0 0.00 0.29 0.00 97 1011.6
20260510084046 51 329 0.0 4.0 0.00 0.29 0.00 97 1011.6
20260510083544 51 0 0.0 4.0 0.00 0.29 0.00 97 1011.4
20260510083047 51 346 0.0 2.0 0.00 0.29 0.00 97 1011.5
20260510082544 51 141 0.0 2.0 0.00 0.29 0.00 97 1011.0
20260510082043 51 0 0.0 1.0 0.00 0.29 0.00 97 1010.8
20260510081549 51 0 0.0 2.0 0.00 0.29 0.00 97 1010.7
20260510081042 51 152 0.0 2.0 0.00 0.29 0.00 97 1010.5
20260510080543 51 136 0.0 2.0 0.00 0.29 0.00 97 1010.5
20260510080046 51 157 0.0 2.0 0.00 0.29 0.00 97 1010.6
20260510075542 51 148 0.0 2.0 0.00 0.30 0.00 97 1010.6
20260510075043 51 128 0.0 1.0 0.00 0.30 0.00 97 1010.6
20260510074549 51 0 0.0 1.0 0.00 0.30 0.00 97 1010.6
20260510074042 51 0 0.0 1.0 0.00 0.30 0.00 97 1010.6
20260510073541 51 0 0.0 2.0 0.00 0.30 0.00 97 1010.6
20260510073050 51 167 0.0 2.0 0.00 0.30 0.00 97 1010.6
20260510072541 51 0 0.0 1.0 0.00 0.30 0.00 97 1010.6
20260510072041 51 0 0.0 1.0 0.00 0.30 0.00 97 1010.4
20260510071553 51 0 0.0 1.0 0.00 0.30 0.00 97 1010.5
20260510071040 51 0 0.0 1.0 0.00 0.30 0.00 97 1010.4
20260510070542 51 76 0.0 1.0 0.00 0.30 0.00 97 1010.6
20260510070047 51 0 0.0 1.0 0.00 0.30 0.00 97 1010.5
20260510065541 51 0 0.0 1.0 0.00 0.30 0.00 97 1010.5
20260510065042 51 107 0.0 1.0 0.00 0.30 0.00 97 1010.4
20260510064547 51 0 0.0 3.0 0.00 0.30 0.00 97 1010.5
20260510064041 51 0 0.0 3.0 0.00 0.30 0.00 97 1010.6
20260510063543 51 175 0.0 2.0 0.00 0.30 0.00 97 1010.4
20260510063044 51 165 0.0 1.0 0.00 0.30 0.00 97 1010.3
20260510062545 51 0 0.0 1.0 0.00 0.30 0.00 97 1010.3
20260510062041 51 0 0.0 1.0 0.00 0.30 0.00 97 1010.1
20260510061549 51 0 0.0 1.0 0.00 0.30 0.00 97 1010.2
20260510061042 51 0 0.0 1.0 0.00 0.30 0.00 97 1010.2
20260510060540 51 150 0.0 1.0 0.00 0.30 0.00 97 1010.1
20260510060046 51 0 0.0 1.0 0.00 0.30 0.00 97 1010.1
20260510055541 51 156 0.0 1.0 0.00 0.30 0.00 97 1010.3
20260510055040 51 146 0.0 2.0 0.00 0.30 0.00 97 1010.3
20260510054549 51 0 0.0 3.0 0.00 0.30 0.00 96 1010.3
20260510054040 52 0 0.0 3.0 0.00 0.30 0.00 97 1010.5
20260510053540 52 0 0.0 1.0 0.00 0.30 0.00 97 1010.4
20260510053058 52 142 0.0 1.0 0.00 0.30 0.00 97 1010.6
20260510052541 52 96 0.0 1.0 0.00 0.30 0.00 97 1010.3
20260510052041 52 0 0.0 1.0 0.00 0.30 0.00 97 1010.4
20260510051549 52 185 0.0 1.0 0.00 0.30 0.00 96 1010.6
20260510051041 52 175 0.0 1.0 0.00 0.30 0.00 96 1010.6
20260510050543 52 150 0.0 1.0 0.00 0.30 0.00 96 1010.6
20260510050052 52 0 0.0 1.0 0.00 0.30 0.00 96 1010.6
20260510045541 52 109 0.0 1.0 0.00 0.30 0.00 97 1010.4
20260510045041 52 0 0.0 1.0 0.00 0.30 0.00 97 1010.4
20260510044549 52 0 0.0 1.0 0.00 0.30 0.00 97 1010.5
20260510044043 52 134 0.0 1.0 0.00 0.30 0.00 97 1010.5
20260510043542 52 0 0.0 1.0 0.00 0.30 0.00 97 1010.6
20260510043058 52 105 0.0 1.0 0.00 0.30 0.00 97 1010.4
20260510042542 52 65 0.0 1.0 0.00 0.30 0.00 97 1010.5
20260510042050 52 0 0.0 1.0 0.00 0.30 0.00 97 1010.4
20260510041546 52 0 0.0 1.0 0.00 0.30 0.00 97 1010.2
20260510041044 52 82 0.0 1.0 0.00 0.30 0.00 97 1010.2
20260510040542 52 0 0.0 1.0 0.00 0.30 0.00 96 1010.4
20260510040046 52 0 0.0 1.0 0.00 0.30 0.00 97 1010.1
20260510035542 52 124 0.0 2.0 0.00 0.30 0.30 97 1010.0
20260510035042 52 0 0.0 2.0 0.00 0.30 0.30 96 1010.1
20260510034547 52 94 0.0 2.0 0.00 0.30 0.30 97 1010.1
20260510034042 52 0 0.0 2.0 0.00 0.30 0.30 96 1010.1
20260510033542 52 88 0.0 2.0 0.00 0.30 0.30 97 1010.0
20260510033043 52 0 0.0 2.0 0.00 0.30 0.30 97 1010.0
20260510032541 52 0 0.0 2.0 0.00 0.30 0.30 97 1010.1
20260510032042 52 69 0.0 2.0 0.00 0.30 0.30 97 1010.1
20260510031550 52 42 0.0 2.0 0.00 0.30 0.30 97 1010.2
20260510031042 52 102 0.0 2.0 0.00 0.30 0.30 97 1010.1
20260510030545 52 49 0.0 2.0 0.00 0.30 0.30 97 1010.1
20260510030052 52 34 0.0 1.0 0.00 0.30 0.30 97 1010.2
20260510025542 52 39 0.0 1.0 0.00 0.30 0.30 96 1010.3
20260510025042 52 48 0.0 1.0 0.00 0.30 0.30 96 1010.4
20260510024551 52 0 0.0 1.0 0.00 0.30 0.30 96 1010.5
20260510024042 52 15 0.0 1.0 0.00 0.30 0.30 96 1010.5
20260510023542 52 0 0.0 1.0 0.00 0.30 0.30 96 1010.5
20260510023048 52 0 0.0 1.0 0.00 0.30 0.30 96 1010.5
20260510022542 52 0 0.0 1.0 0.00 0.30 0.30 96 1010.4
20260510022043 52 0 0.0 1.0 0.00 0.30 0.30 96 1010.4
20260510021552 52 0 0.0 2.0 0.00 0.30 0.30 96 1010.6
20260510021042 52 46 0.0 2.0 0.00 0.30 0.30 96 1010.4
20260510020542 52 76 0.0 2.0 0.00 0.30 0.30 96 1010.5
20260510020045 52 0 0.0 2.0 0.00 0.30 0.30 96 1010.3
20260510015543 52 97 1.0 2.0 0.00 0.30 0.30 96 1010.3
20260510015041 52 73 0.0 2.0 0.00 0.30 0.30 96 1010.4
20260510014550 52 0 0.0 2.0 0.00 0.30 0.30 96 1010.4
20260510014044 52 74 0.0 2.0 0.00 0.30 0.30 96 1010.4
20260510013543 52 63 0.0 2.0 0.00 0.30 0.30 96 1010.1
20260510013053 52 93 0.0 2.0 0.00 0.30 0.30 96 1010.1
20260510012544 52 111 1.0 2.0 0.00 0.30 0.30 96 1010.1
20260510012042 52 0 0.0 2.0 0.00 0.30 0.30 96 1010.0
20260510011551 52 104 0.0 2.0 0.00 0.30 0.30 96 1010.1
20260510011041 52 0 1.0 2.0 0.00 0.30 0.30 96 1010.1
20260510010542 52 95 0.0 2.0 0.00 0.30 0.30 96 1009.9
20260510010053 52 60 0.0 1.0 0.00 0.30 0.30 96 1010.0
20260510005542 52 98 0.0 1.0 0.00 0.30 0.30 96 1009.9
20260510005042 52 90 0.0 1.0 0.00 0.30 0.30 96 1010.0
20260510004556 52 78 0.0 1.0 0.00 0.30 0.30 96 1009.8
20260510004042 52 78 0.0 1.0 0.00 0.30 0.30 96 1009.8
20260510003542 52 0 0.0 1.0 0.00 0.30 0.30 96 1009.8
20260510003051 53 0 0.0 1.0 0.00 0.30 0.30 96 1009.7
20260510002544 53 30 0.0 1.0 0.01 0.30 0.30 96 1009.7
20260510002041 52 0 0.0 1.0 0.01 0.30 0.30 96 1009.8
20260510001553 53 0 0.0 1.0 0.01 0.30 0.30 95 1009.8
20260510001042 53 360 0.0 1.0 0.01 0.30 0.30 96 1009.7
20260510000543 53 352 0.0 1.0 0.02 0.30 0.30 96 1009.9
20260510000057 53 82 0.0 1.0 0.03 0.30 0.30 95 1009.7
20260509235544 53 0 0.0 1.0 0.04 0.30 0.30 95 1009.8
20260509235042 53 0 0.0 1.0 0.04 0.30 0.30 95 1009.9
20260509234549 53 224 0.0 1.0 0.05 0.30 0.30 95 1009.8
20260509234043 53 0 0.0 2.0 0.06 0.30 0.30 95 1009.6
20260509233542 53 175 0.0 2.0 0.08 0.30 0.30 95 1009.3
20260509233056 53 129 1.0 10.0 0.09 0.30 0.30 95 1009.3
20260509232546 53 180 1.0 12.0 0.09 0.29 0.29 95 1009.1
20260509232041 53 109 4.0 12.0 0.10 0.29 0.29 95 1008.9
20260509231548 53 130 2.0 9.0 0.10 0.29 0.29 95 1008.9
20260509231042 53 158 1.0 3.0 0.11 0.29 0.29 94 1010.0
20260509230543 53 360 1.0 3.0 0.10 0.28 0.28 94 1010.6
20260509230045 53 185 1.0 3.0 0.09 0.27 0.27 94 1010.5